Wind_Speed
15 14 17 15 15 13 12 10 9 9 10 11 11 11 10 10 10 9 9 9 8 7 7 9 10 11 12 12 11 13 15 16 16 15 12 9 9 9 10 10 11 12 11
14 15 16 14 12 13 12 11 8 8 8 9 9 9 8 8 7 6 6 6 7 8 9 10 11 12 12 12 13 15 17 17 15 14 13 12 11 10 12 13 14 14 15
16 17 15 14 12 13 12 12 10 8 8 7 7 7 7 6 6 5 6 8 10 10 11 12 13 12 13 13 15 17 19 17 13 13 13 13 14 15 16 16 17 17 17
21 18 15 14 13 15 14 11 11 10 8 8 7 7 8 7 7 8 9 10 11 11 12 12 12 12 15 16 17 17 18 14 13 14 14 15 16 18 17 18 17 17 17
23 20 17 15 15 15 14 12 11 12 11 8 9 10 10 10 9 9 10 10 12 12 12 13 13 14 16 17 17 16 14 14 15 15 16 18 17 19 19 17 19 20 21
24 22 20 18 18 18 15 13 12 12 12 11 10 10 11 11 11 11 12 14 14 14 14 15 15 16 17 17 17 17 16 17 18 19 19 20 18 19 20 21 23 24 25
27 25 23 22 21 19 16 15 13 13 12 10 11 11 10 12 12 13 14 15 15 16 17 17 17 18 18 16 19 18 21 22 22 22 21 20 21 21 23 26 28 29 30
32 30 27 24 24 22 21 19 16 15 13 12 12 11 12 12 12 13 15 15 16 17 18 19 20 20 20 21 21 23 23 24 25 26 26 26 26 27 29 31 34 35 36
36 35 34 30 28 27 25 24 22 19 18 17 15 15 14 14 14 14 15 17 19 21 22 22 23 23 24 24 26 27 28 29 28 29 30 32 32 34 35 36 39 39 38
41 41 38 37 33 31 30 27 26 24 22 19 19 17 18 17 17 15 17 18 20 21 21 21 23 24 26 27 28 30 32 34 34 34 34 36 37 39 41 42 42 43 41
39 43 44 42 39 35 35 33 31 29 26 24 23 22 21 19 20 19 19 19 20 21 22 24 26 28 28 29 31 34 35 36 39 41 42 42 42 43 44 46 48 50 51
50 43 45 47 45 40 37 38 36 34 32 29 26 26 25 24 24 24 24 23 22 22 25 27 28 30 32 34 36 37 39 41 43 45 47 48 50 49 50 51 52 53 55
54 52 50 48 48 48 45 41 41 39 38 36 33 31 30 31 30 29 29 28 27 26 30 32 33 35 37 37 38 42 44 47 50 52 54 54 54 53 54 54 56 57 58
60 56 56 50 49 48 52 48 45 45 43 43 41 37 36 37 37 36 35 34 35 34 35 37 38 39 42 44 45 46 49 50 51 53 55 55 57 53 53 57 59 59 61
67 63 60 58 56 54 52 54 51 50 48 47 48 45 44 43 43 43 42 41 41 41 42 42 43 45 46 48 49 51 54 56 57 59 59 56 56 58 59 60 62 64 66
70 69 65 61 61 56 58 54 55 57 56 54 53 52 50 49 48 49 48 47 48 48 48 49 50 51 52 54 56 58 61 63 63 63 61 61 63 62 64 68 69 69 72
74 72 70 69 65 63 61 62 58 58 59 60 59 59 56 56 55 54 53 52 54 54 54 56 57 57 58 59 62 63 64 65 65 65 64 64 65 67 75 74 72 75 78
76 74 74 73 72 68 68 65 61 59 59 57 59 62 62 61 60 59 58 59 59 58 58 59 60 59 59 60 61 62 64 66 69 68 68 70 75 78 78 78 81 80 82
80 79 78 76 74 73 73 70 68 67 64 62 62 63 64 65 63 62 62 63 63 61 61 62 61 62 63 63 62 66 68 72 74 75 75 80 83 84 82 85 85 84 86
80 78 78 79 80 78 78 76 73 71 71 70 68 67 65 61 59 59 63 65 64 62 63 67 68 70 70 67 67 67 70 74 75 78 80 81 87 84 86 89 88 91 93
85 82 77 77 77 78 77 80 77 77 74 72 71 71 69 64 64 65 65 64 61 62 63 64 67 69 69 73 74 75 72 77 85 89 84 83 84 85 87 90 95 94 97
85 86 84 81 79 75 75 75 76 77 80 80 76 73 71 71 70 66 63 66 68 68 67 66 67 68 72 74 78 82 83 82 81 84 87 87 88 94 96 97 98 102 104
90 86 86 84 84 83 79 72 72 73 75 78 80 77 73 72 72 70 69 69 71 72 71 73 74 77 78 78 79 82 83 85 89 91 93 95 97 98 101 103 106 109 107
95 93 93 90 87 84 79 77 73 73 72 72 77 80 79 78 76 74 73 75 75 76 78 77 81 82 84 85 87 89 90 91 94 96 99 101 101 103 106 104 102 105 104
103 98 96 94 91 85 78 79 79 77 75 72 71 76 78 77 80 79 78 80 80 80 79 81 83 84 87 88 88 90 93 97 98 100 100 101 103 103 101 104 105 106 109
101 103 101 98 96 93 87 83 81 78 79 78 75 73 73 75 75 76 78 79 79 78 80 81 84 85 85 86 88 91 93 97 99 103 104 105 106 102 102 103 106 105 106
Wind_Direction
326 333 339 334 322 297 281 271 256 252 256 253 250 254 260 267 268 263 259 261 256 250 244 238 238 237 245 250 259 261 271 281 283 285 272 254 248 253 269 277 278 289 291
319 326 333 335 324 298 287 273 262 255 250 247 244 244 247 250 250 245 241 242 244 244 245 242 244 248 251 251 257 269 273 274 274 267 253 238 247 257 268 271 273 283 286
304 315 327 332 329 323 309 302 282 263 253 250 251 245 238 234 238 239 245 252 251 252 250 247 248 249 255 263 269 275 276 276 262 254 250 246 255 266 273 275 283 285 291
292 299 310 320 321 328 328 311 298 281 272 261 256 247 249 248 251 248 249 256 259 261 255 248 248 262 270 271 271 273 272 267 263 253 253 259 266 273 273 279 286 288 290
281 286 294 303 309 317 329 316 306 305 283 273 266 263 254 250 255 253 259 261 257 257 251 254 264 272 277 275 268 258 261 260 261 265 269 273 275 280 284 286 292 290 291
273 277 282 287 297 299 303 314 314 318 315 293 274 272 255 256 261 261 262 263 264 253 253 261 267 281 280 267 254 251 255 257 264 270 272 276 274 281 280 283 286 287 289
263 268 271 277 280 284 284 293 299 313 307 308 311 283 269 262 258 262 266 266 258 251 257 263 271 279 277 265 247 255 260 265 267 267 270 268 272 278 286 285 286 292 291
260 263 265 266 268 275 273 278 281 291 301 298 299 296 290 276 269 266 268 266 256 258 260 264 269 274 267 261 254 260 262 268 272 272 268 270 271 274 280 285 287 289 289
254 257 260 260 261 262 266 268 272 276 282 293 292 293 279 278 278 274 272 269 262 261 263 267 272 268 264 265 261 262 263 268 272 273 274 270 272 275 279 279 285 289 288
254 249 250 257 254 256 256 261 267 267 271 274 280 284 285 280 272 268 268 269 270 268 270 269 269 265 264 265 266 267 268 271 273 274 276 275 273 275 277 280 282 284 287
249 255 247 249 251 251 253 256 260 262 263 266 271 271 275 276 275 273 268 268 267 270 271 269 270 266 266 269 269 269 274 275 275 277 281 283 284 283 282 282 285 288 290
246 252 253 249 250 251 252 253 256 258 260 260 260 264 271 274 274 275 271 274 274 271 266 263 267 268 270 267 267 270 273 275 278 279 281 283 283 283 285 285 286 288 288
247 248 249 251 251 250 251 253 256 256 257 259 262 259 263 266 270 270 272 275 271 269 265 264 265 266 269 272 273 274 275 275 276 276 278 281 283 286 289 289 288 286 288
247 246 248 250 252 257 251 252 255 259 256 257 257 258 259 259 262 266 268 270 272 273 272 273 273 273 275 275 275 275 275 276 278 281 282 284 286 287 287 287 286 288 288
244 246 247 250 252 254 258 249 251 255 257 257 258 258 259 261 263 266 267 268 270 271 273 273 275 277 278 280 280 280 280 280 281 281 282 282 284 286 286 285 285 286 288
244 245 247 247 249 252 250 252 252 254 256 256 257 258 257 258 260 264 268 269 269 270 273 274 275 277 278 280 279 280 281 283 284 285 284 283 284 286 288 286 286 290 290
246 247 249 250 249 249 250 247 248 252 258 258 258 258 259 260 261 261 264 266 268 271 273 275 276 277 278 280 282 283 285 287 288 289 287 289 290 289 284 285 289 290 291
246 247 248 249 251 250 251 249 248 251 255 260 263 262 260 259 262 264 267 268 269 270 272 274 278 280 282 282 284 285 285 286 289 289 291 291 288 282 285 290 291 291 292
244 244 246 246 249 250 250 252 252 255 257 255 257 263 267 266 266 266 269 269 271 273 276 276 277 279 279 281 285 291 292 293 291 290 288 285 286 287 287 293 291 292 293
243 245 245 247 245 248 249 252 255 255 257 257 258 263 264 266 271 274 276 275 275 279 282 280 280 282 286 288 287 287 287 287 290 289 290 291 291 289 289 291 290 293 291
243 242 243 244 245 247 248 247 250 254 254 257 259 262 263 264 265 267 270 270 272 276 278 277 279 285 284 284 284 284 283 283 286 291 293 290 290 289 289 289 291 293 292
240 243 243 243 241 240 244 248 250 251 253 255 257 259 260 262 262 264 269 269 269 271 277 279 276 278 276 277 281 287 289 290 290 288 289 289 288 289 291 293 291 293 296
240 240 241 241 243 244 242 245 248 250 252 254 255 256 256 259 262 265 267 267 268 272 274 278 281 282 283 285 285 286 284 284 286 287 289 290 290 292 292 292 293 295 296
245 242 243 244 241 242 244 245 244 245 250 252 254 256 259 260 262 264 266 267 269 271 274 277 279 281 283 285 285 284 283 285 288 288 288 290 292 294 294 294 294 293 294
246 244 243 247 247 244 245 244 246 246 247 250 254 255 256 261 263 263 264 266 269 271 276 279 281 281 282 283 282 283 284 285 287 289 288 291 292 293 291 292 293 293 293
244 246 246 246 247 248 249 248 248 250 249 249 254 258 259 260 263 265 267 269 270 273 276 275 276 278 280 280 280 281 284 285 287 287 288 290 292 292 292 293 293 296 299
Height
10843 10840 10838 10835 10833 10831 10829 10829 10828 10827 10827 10827 10828 10828 10828 10828 10828 10829 10829 10830 10831 10832 10832 10833 10833 10833 10833 10832 10832 10831 10831 10830 10829 10828 10827 10826 10825 10824 10823 10823 10821 10820 10818
10841 10840 10838 10836 10833 10831 10829 10828 10827 10826 10825 10824 10824 10825 10825 10825 10826 10827 10828 10829 10830 10830 10830 10830 10830 10830 10830 10830 10829 10829 10828 10827 10826 10824 10824 10823 10822 10822 10821 10819 10818 10817 10815
10839 10839 10837 10835 10833 10832 10830 10828 10826 10825 10823 10823 10822 10823 10823 10823 10824 10825 10826 10827 10828 10828 10829 10828 10828 10828 10827 10827 10826 10825 10824 10823 10822 10822 10821 10821 10820 10819 10818 10817 10815 10813 10811
10837 10836 10836 10834 10832 10831 10829 10827 10826 10825 10823 10822 10821 10821 10822 10822 10823 10824 10825 10826 10827 10827 10827 10827 10826 10826 10825 10824 10823 10822 10821 10820 10820 10819 10818 10818 10817 10816 10814 10812 10811 10809 10808
10835 10834 10833 10833 10831 10830 10829 10826 10825 10824 10822 10820 10820 10820 10820 10821 10822 10823 10824 10825 10825 10825 10825 10824 10824 10823 10822 10821 10820 10819 10818 10817 10816 10816 10815 10814 10813 10812 10810 10808 10807 10805 10803
10832 10831 10831 10830 10829 10828 10827 10825 10824 10823 10821 10820 10819 10819 10819 10819 10820 10821 10822 10823 10823 10822 10822 10822 10822 10821 10819 10818 10817 10817 10816 10814 10813 10813 10812 10811 10809 10807 10805 10803 10800 10799 10798
10827 10828 10827 10827 10826 10826 10824 10823 10823 10822 10820 10819 10819 10819 10818 10818 10818 10819 10820 10820 10820 10820 10819 10819 10819 10818 10816 10815 10814 10814 10811 10810 10809 10808 10807 10805 10804 10802 10800 10798 10795 10794 10792
10822 10823 10823 10823 10823 10822 10821 10821 10820 10820 10819 10818 10817 10817 10816 10816 10816 10815 10816 10816 10816 10816 10816 10816 10815 10814 10813 10811 10811 10808 10807 10806 10805 10803 10802 10800 10798 10797 10794 10790 10789 10787 10785
10816 10817 10817 10818 10818 10818 10818 10817 10816 10816 10816 10816 10815 10815 10814 10814 10814 10813 10813 10813 10812 10812 10812 10811 10811 10810 10808 10808 10806 10805 10803 10801 10800 10798 10796 10795 10793 10790 10787 10784 10781 10779 10777
10810 10811 10811 10812 10812 10813 10813 10812 10812 10812 10812 10812 10812 10811 10811 10811 10810 10809 10809 10809 10809 10808 10808 10807 10806 10805 10803 10803 10801 10800 10797 10796 10794 10792 10790 10788 10786 10784 10781 10776 10773 10770 10768
10802 10803 10805 10805 10805 10807 10807 10807 10807 10808 10808 10807 10807 10807 10807 10807 10806 10806 10805 10804 10804 10805 10804 10803 10802 10799 10798 10797 10795 10793 10791 10790 10787 10784 10782 10780 10778 10775 10772 10768 10764 10760 10758
10793 10793 10797 10797 10798 10800 10801 10801 10801 10803 10803 10802 10802 10803 10803 10802 10802 10802 10800 10800 10800 10799 10798 10796 10795 10793 10791 10791 10788 10786 10784 10782 10779 10776 10773 10771 10768 10766 10763 10759 10755 10751 10747
10781 10783 10786 10788 10790 10792 10794 10794 10795 10796 10796 10797 10797 10797 10798 10797 10797 10796 10796 10795 10794 10794 10791 10789 10788 10786 10783 10783 10782 10779 10776 10774 10770 10767 10764 10762 10758 10756 10753 10749 10745 10741 10736
10768 10772 10773 10777 10781 10783 10785 10786 10787 10788 10789 10789 10789 10790 10791 10790 10789 10789 10789 10788 10787 10787 10785 10783 10781 10780 10776 10775 10774 10771 10767 10764 10761 10758 10755 10751 10748 10746 10742 10739 10734 10730 10727
10754 10758 10762 10765 10769 10772 10774 10775 10777 10777 10779 10781 10780 10782 10783 10782 10782 10781 10781 10781 10779 10779 10778 10775 10773 10771 10769 10767 10765 10761 10757 10754 10751 10748 10745 10742 10739 10736 10732 10729 10723 10719 10716
10740 10745 10750 10754 10757 10760 10762 10764 10766 10767 10769 10771 10770 10771 10772 10772 10772 10772 10773 10773 10770 10770 10770 10766 10764 10763 10761 10757 10753 10750 10746 10742 10739 10736 10734 10731 10727 10724 10720 10713 10710 10708 10702
10729 10733 10738 10741 10745 10747 10750 10752 10754 10755 10758 10760 10760 10760 10762 10763 10763 10763 10763 10762 10760 10759 10758 10756 10753 10753 10751 10747 10743 10739 10734 10729 10725 10722 10720 10717 10714 10709 10702 10699 10695 10691 10687
10713 10719 10722 10727 10731 10734 10737 10741 10743 10744 10746 10748 10749 10748 10749 10751 10752 10754 10754 10751 10750 10749 10747 10743 10741 10741 10740 10736 10732 10727 10721 10716 10712 10708 10705 10701 10694 10689 10687 10685 10681 10675 10669
10694 10702 10707 10712 10716 10719 10722 10726 10731 10733 10734 10735 10738 10737 10739 10741 10743 10743 10741 10739 10737 10739 10737 10731 10727 10727 10725 10724 10720 10715 10709 10703 10697 10691 10687 10682 10679 10675 10671 10667 10662 10657 10650
10676 10684 10691 10696 10701 10704 10709 10712 10715 10718 10721 10723 10725 10729 10732 10731 10732 10732 10730 10727 10725 10727 10725 10719 10715 10713 10711 10709 10705 10701 10695 10687 10680 10674 10670 10666 10662 10656 10651 10648 10642 10636 10631
10659 10667 10675 10681 10684 10689 10693 10698 10700 10704 10707 10710 10713 10716 10718 10720 10720 10719 10718 10716 10715 10712 10712 10707 10703 10700 10698 10694 10690 10685 10680 10672 10663 10658 10654 10649 10643 10637 10632 10627 10620 10615 10610
10645 10649 10656 10663 10670 10673 10677 10682 10688 10690 10692 10696 10699 10701 10702 10704 10706 10707 10706 10703 10701 10699 10697 10695 10691 10687 10682 10678 10674 10669 10662 10653 10644 10638 10635 10630 10625 10618 10612 10604 10597 10592 10585
10630 10635 10638 10646 10652 10660 10666 10670 10671 10675 10678 10681 10684 10685 10688 10689 10690 10692 10690 10688 10686 10684 10681 10680 10677 10673 10668 10664 10658 10651 10645 10636 10628 10621 10614 10609 10603 10597 10591 10582 10573 10568 10562
10606 10617 10622 10626 10637 10642 10653 10655 10657 10659 10663 10666 10668 10672 10673 10674 10675 10676 10675 10674 10672 10669 10667 10664 10661 10656 10651 10647 10640 10634 10627 10620 10611 10602 10593 10586 10580 10575 10567 10559 10551 10545 10538
10583 10596 10605 10611 10619 10631 10638 10639 10641 10644 10649 10651 10654 10658 10659 10659 10660 10661 10660 10658 10657 10655 10652 10649 10644 10640 10634 10628 10620 10615 10608 10600 10591 10583 10573 10566 10559 10552 10545 10537 10528 10521 10512
10564 10572 10584 10594 10602 10613 10623 10623 10626 10630 10632 10639 10642 10644 10644 10645 10644 10644 10644 10642 10642 10639 10636 10631 10627 10622 10616 10609 10601 10595 10586 10577 10570 10562 10554 10546 10539 10529 10521 10514 10505 10495 10486